Other Public Products
Issued by NWS Grand Forks, ND

Home | Current Version | Previous Version | Graphics & Text | Print | Product List | Glossary On
Versions: 1 2 3 4 5 6 7 8 9 10 11 12 13 14 15 16 17 18 19 20 21 22 23 24 25 26 27 28 29 30 31 32 33 34 35 36 37 38 39 40 41 42 43 44 45 46 47 48 49 50
000
FPUS83 KFGF 221810
OPUFGF
PRAIRIE TO PINES WEATHER ROUNDUP
NATIONAL WEATHER SERVICE EASTERN NORTH DAKOTA/GRAND FORKS ND
100 PM CDT FRI SEP 22 2017

 **SATELLITE DATA USED TO AUGMENT SKY COVER AT AUTOMATED STATIONS**
 *****  WEATHER ACROSS EASTERN NORTH DAKOTA  *****

CITY           SKY/WX    TMP DP  RH WIND       PRES   REMARKS
GRAND FORKS    CLOUDY    68  56  65 NE12      29.73F
6HR MIN TEMP:  55; 6HR MAX TEMP:  68;

GRAND FORKS AF CLOUDY    64  54  69 NE12      29.75F
GRAND CITY NWS NOT AVBL
BUXTON         NOT AVBL
DEVILS LAKE    CLOUDY    59  44  57 NE15      29.79R
6HR MIN TEMP:  51; 6HR MAX TEMP:  60;

FARGO          CLOUDY    81  68  64 NE5       29.67F
6HR MIN TEMP:  62; 6HR MAX TEMP:  81;

WAHPETON ARPT  FAIR      82  68  61 S18G26    29.67F
$$

 *****  WEATHER ACROSS CENTRAL AND WESTERN NORTH DAKOTA  *****

CITY           SKY/WX    TMP DP  RH WIND       PRES   REMARKS
JAMESTOWN      CLOUDY    61  56  83 NE13      29.71F
6HR MIN TEMP:  56; 6HR MAX TEMP:  61; 6HR PCP: TRACE;

BISMARCK       CLOUDY    56  45  66 N13G26    29.79F
6HR MIN TEMP:  54; 6HR MAX TEMP:  56; 6HR PCP: TRACE;

MINOT          LGT RAIN  50  43  77 NW21G30   29.89F
6HR MIN TEMP:  46; 6HR MAX TEMP:  50;

MINOT AFB      CLOUDY    49  44  82 N20G26    29.89F
6HR MIN TEMP:  46; 6HR MAX TEMP:  50; 6HR PCP:  0.04;

GARRISON         N/A     48  41  76 N21G33    29.84F
6HR MIN TEMP:  47; 6HR MAX TEMP:  51;

WILLISTON      LGT RAIN  49  41  74 N13       30.00S
6HR MIN TEMP:  46; 6HR MAX TEMP:  49; 6HR PCP: TRACE;

DICKINSON      CLOUDY    47  39  74 N23G32    29.87F
6HR MIN TEMP:  46; 6HR MAX TEMP:  50; 6HR PCP: TRACE;

HETTINGER      CLOUDY    51  37  58 N23G30    29.84F
6HR MIN TEMP:  49; 6HR MAX TEMP:  51; 6HR PCP: TRACE;

$$

 *****  OTHER OBSERVATIONS NORTHEAST NORTH DAKOTA  *****

CITY           SKY/WX    TMP DP  RH WIND       PRES   REMARKS
WALHALLA       FAIR     N/A N/A N/A N14G21    29.83F
LANGDON        CLOUDY    59  43  55 NE18G25   29.83S
CAVALIER       CLOUDY    63  50  63 N10G24    29.82S
GRAFTON        CLOUDY    66  54  63 N13       29.79S
CANDO          CLOUDY    57  43  58 N17G25    29.83S
FORT TOTTEN      N/A     59  44  58 NE7       29.95S
ROLLA          CLOUDY    50  41  71 N22       29.87F
RUGBY          CLOUDY    52  43  71 N18G25    29.82F
 ***** THE ABOVE OBSERVATIONS ARE NON NWS ARE NOT QUALITY
        CONTROLLED AND MAY MIS-REPORT RAIN FOR SNOW...
$$

 *****  OTHER OBSERVATIONS SOUTHEAST NORTH DAKOTA *****

CITY           SKY/WX    TMP DP  RH WIND       PRES   REMARKS
COOPERSTOWN    CLOUDY    61  54  77 NE13      29.74F
VALLEY CITY    CLOUDY    61  61 100 NE12G18   29.73F
OAKES          NOT AVBL
GWINNER        CLOUDY    70  66  88 N7        29.68S
SHEYENNE NWR     N/A     74  68  81 N5        29.95S
BUFFALO        NOT AVBL
WYNDMERE       NOT AVBL
 ***** THE ABOVE OBSERVATIONS ARE NON NWS ARE NOT QUALITY
       CONTROLLED AND MAY MIS-REPORT RAIN FOR SNOW...
$$

  *****  WEATHER ACROSS NORTHERN MINNESOTA  *****

CITY           SKY/WX    TMP DP  RH WIND       PRES   REMARKS
FLAG ISLAND    PTSUNNY   64  55  72 N10       29.83F
WARROAD        CLOUDY    63  57  82 NE10      29.83F
ROSEAU         FAIR      70  61  73 E15       29.81F
HALLOCK          N/A     72  54  53 NE13      29.76F
THF RVR FALLS  FAIR      73  64  73 E16G25    29.74F
6HR MIN TEMP:  60; 6HR MAX TEMP:  73;

HALSTAD        NOT AVBL
FOSSTON        FAIR      82  64  54 SE7       29.74S
BAUDETTE       CLOUDY    69  64  84 E10       29.82F
6HR MIN TEMP:  56; 6HR MAX TEMP:  69;

WASKISH        CLOUDY    79  66  65 E10G16    29.78F
CROOKSTON      FAIR      73  64  73 E18G24    29.72F
$$
  *****  WEATHER ACROSS CENTRAL AND WEST MINNESOTA  *****

CITY           SKY/WX    TMP DP  RH WIND       PRES   REMARKS
BEMIDJI        FAIR      77  66  68 E10G16    29.77F
6HR MIN TEMP:  61; 6HR MAX TEMP:  78;

PARK RAPIDS    CLOUDY    77  71  82 SE18      29.75F
6HR MIN TEMP:  67; 6HR MAX TEMP:  77;

WADENA         CLOUDY    81  72  74 SE13G18   29.74F
DETROIT LAKES  FAIR      81  70  69 S13       29.73F
MOORHEAD       FAIR      82  70  65 SE8       29.67F
FERGUS FALLS   FAIR      84  72  65 S20       29.68F
ELBOW LAKE     MOCLDY    79  73  80 E15       29.72F HAZE
MORRIS MN      FAIR      84  73  70 SE17      29.70F HX  91
STAPLES        PTSUNNY   79  72  78 SE12G17   29.76F
WHEATON        PTSUNNY   82  70  65 SE10      29.69F
$$
  *****  WEATHER ELSEWHERE ACROSS MINNESOTA  *****

CITY           SKY/WX    TMP DP  RH WIND       PRES   REMARKS
DULUTH         FAIR      68  64  87 S9        29.86F
6HR MIN TEMP:  60; 6HR MAX TEMP:  69; 6HR PCP:  0.49;

INTRNTL FALLS  PTSUNNY   73  64  73 E9        29.84F
6HR MIN TEMP:  59; 6HR MAX TEMP:  74;

ELY            FAIR      72  61  68 CALM      29.88R
CLOQUET        FAIR      70  64  83 SE6       29.86F
BRAINERD       PTSUNNY   79  71  76 MISG      29.80S
6HR MIN TEMP:  65; 6HR MAX TEMP:  79;

HIBBING        FAIR      75  64  68 SE12      29.85S
6HR MIN TEMP:  59; 6HR MAX TEMP:  76; 6HR PCP:  0.07;

ALEXANDRIA     CLOUDY    79  72  79 SE17G23   29.77F
6HR MIN TEMP:  67; 6HR MAX TEMP:  79;

SAINT CLOUD    FAIR      81  75  82 SE12      29.81F
6HR MIN TEMP:  70; 6HR MAX TEMP:  81; 6HR PCP:  0.01;

MINNEAPOLIS    FAIR      89  73  59 S9        29.83F HX  97
6HR MIN TEMP:  74; 6HR MAX TEMP:  89;

$$

  *****  WEATHER ACROSS SOUTH DAKOTA  *****

CITY           SKY/WX    TMP DP  RH WIND       PRES   REMARKS
SIOUX FALLS    FAIR      88  73  61 S18G28    29.72S HX  95
6HR MIN TEMP:  76; 6HR MAX TEMP:  88;

BROOKINGS      FAIR      85  70  60 S23G30    29.72F
WATERTOWN      FAIR      84  71  65 S17G25    29.69F
6HR MIN TEMP:  71; 6HR MAX TEMP:  84;

HURON          FAIR      88  67  49 S18G26    29.64S HX  91
6HR MIN TEMP:  73; 6HR MAX TEMP:  89;

SISSETON         N/A     85  74  69 SE14      29.66F HX  92
ABERDEEN       FAIR      87  69  54 S14       29.62F HX  91
6HR MIN TEMP:  61; 6HR MAX TEMP:  88;

MITCHELL       FAIR      92  66  42 SW18G29   29.65F HX  94
PIERRE         PTSUNNY   70  56  61 W17       29.67R
6HR MIN TEMP:  57; 6HR MAX TEMP:  71;

MOBRIDGE       CLOUDY    64  57  78 N15       29.65S
RAPID CITY     MOSUNNY   59  39  47 NW31G40   29.83F
$$

  *****  SOME WEATHER IN NEARBY STATES *****

CITY           SKY/WX    TMP DP  RH WIND       PRES   REMARKS
GLASGOW MT     CLOUDY    43  41  93 NW9       30.07R
6HR MIN TEMP:  41; 6HR MAX TEMP:  44; 6HR PCP:  0.04;

GREAT FALLS MT CLOUDY    37  34  89 NE14      30.07S
6HR MIN TEMP:  34; 6HR MAX TEMP:  37; 6HR PCP:  0.05;

CHEYENNE WY    FAIR      63  38  39 NE6       29.88F
6HR MIN TEMP:  41; 6HR MAX TEMP:  65;

SCOTTSBLUFF NE FAIR      64  42  44 VRB6      29.84S
6HR MIN TEMP:  43; 6HR MAX TEMP:  64;

OMAHA NE       FAIR      90  71  53 SE22      29.83F HX  96
6HR MIN TEMP:  77; 6HR MAX TEMP:  90;

DES MOINES IA  FAIR      90  70  51 S20G25    29.92F HX  95
6HR MIN TEMP:  73; 6HR MAX TEMP:  90;

DAVENPORT IA   FAIR      88  68  51 S14G21    30.04F HX  91
6HR MIN TEMP:  71; 6HR MAX TEMP:  88;

CHICAGO IL     FAIR      93  63  36 SW13G18   30.05F HX  94
6HR MIN TEMP:  73; 6HR MAX TEMP:  93;

EAU CLAIRE WI  FAIR      89  70  53 S14G21    29.90S HX  94
6HR MIN TEMP:  73; 6HR MAX TEMP:  89;

LA CROSSE WI   FAIR      93  71  48 S17G25    29.93F HX 100
6HR MIN TEMP:  76; 6HR MAX TEMP:  93;

$$

  *****  SOME NATIONAL WEATHER *****

CITY           SKY/WX    TMP DP  RH WIND       PRES   REMARKS
LA GUARDIA NY  FAIR      79  56  45 N16       29.95F
6HR MIN TEMP:  68; 6HR MAX TEMP:  79;



USA.gov is the U.S. government's official web portal to all federal, state and local government web resources and services.